Terminal Aerodrome Forecast
Issued by NWS Houston/Galveston, TX

Home | Current Version | Previous Version | Text Only | Print | Product List | Glossary On
Versions: 1 2 3 4 5 6 7 8 9 10 11 12 13 14 15 16 17 18 19 20 21 22 23 24 25 26 27 28 29 30 31 32 33 34 35 36 37 38 39 40 41 42 43 44 45 46 47 48 49 50
000
FTUS44 KHGX 242320
TAFCLL
TAFCLL
TAF
KCLL 242320Z 2500/2524 16010KT P6SM FEW030 SCT070
      TEMPO 2509/2513 5SM BR BKN020
     FM251300 16011KT P6SM BKN025
     FM251500 16013KT P6SM VCSH BKN025
     FM251700 17013KT 6SM TSRA BR SCT025 BKN040CB=

USA.gov is the U.S. government's official web portal to all federal, state and local government web resources and services.